Weather in Burnie

Australia     41°03′27″S   145°54′06″E
temp.,
°C
wind,
m/s
gust,
m/s
humid.,
%
clouds,
%
prec.,
mm/h
press.,
hPa
HPBL,
m
27 january, thu
thu2723:00+18e111485100 0.0 1014933
02:00+18e101385100 0.1 10121007
05:00+18e91285100 0.3 10111050
08:00+18ese91392100 3.6 1011718
11:00+18e81296100 16.9 1011746
14:00+19e71095100 0.6 1010605
17:00+19e699467 1.1 1009450
20:00+19ese4794100 0.4 1009271
28 january, fri
fri2823:00+19se579459 0.8 1009187
02:00+19se689418 0.0 1008243
05:00+19ese579466 0.0 1008282
08:00+19ese359699 0.1 1009178
11:00+19ese2394100 0.6 1010191
14:00+20n229296 0.6 1010201
17:00+20nw459198 0.7 1009267
20:00+20n3389100 0.0 101085
29 january, sat
sat2923:00+19w349022 0.1 101380
02:00+18ssw33926 0.0 101383
05:00+17s33917 0.0 1014118
08:00+18sse46872 0.0 1016200
11:00+19e569370 0.2 1017372
14:00+19ne339021 0.3 1017294
17:00+20nnw33863 0.3 1016305
20:00+19nw459066 0.0 1018282
30 january, sun
sun3023:00+19w129184 0.0 101978
02:00+18ese468468 0.1 1018395
05:00+17se56844 0.1 1018304
08:00+18se34790 0.0 1018267
11:00+19ne22730 0.0 1018311
14:00+19nnw44740 0.0 1016293
17:00+20nw66780 0.0 1014264
20:00+20n458833 0.0 1014197
31 january, mon
mon3123:00+19e34907 0.0 1015135
02:00+18se34918 0.0 1015178
05:00+17ese33917 0.0 1014187
08:00+18ese228941 0.0 1015217
11:00+19ene228336 0.0 1015309
14:00+20nne43827 0.0 1013409
17:00+20ne23784 0.0 1011343
20:00+19nne118530 0.0 1010136